Regional Weather Roundup
Issued by NWS

Home | Current Version | Previous Version | Graphics & Text | Print | Product List | Glossary On
Versions: 1 2 3 4 5 6 7 8 9 10 11 12 13 14 15 16 17 18 19 20 21 22 23 24 25 26 27 28 29 30 31 32 33 34 35 36 37 38 39 40 41 42 43 44 45 46 47 48 49 50
000
ASUS43 KTOP 231359
RWRKS

WEATHER ROUNDUP FOR KANSAS
NATIONAL WEATHER SERVICE GOODLAND KS
900 AM CDT WED AUG 23 2017

NOTE:  "FAIR" INDICATES FEW OR NO CLOUDS BELOW 12,000 FEET WITH NO
SIGNIFICANT WEATHER AND/OR OBSTRUCTIONS TO VISIBILITY.

KSZ001>006-013>018-027>032-041>047-231500-
NORTHWEST KANSAS

CITY           SKY/WX    TMP DP  RH WIND       PRES   REMARKS
GOODLAND       SUNNY     61  49  64 S20G25    30.20S
HAYS           SUNNY     61  54  77 S5        30.21R
HILL CITY      SUNNY     63  53  70 S9        30.21S
RUSSELL        SUNNY     64  51  62 S8        30.18S
$$

KSZ061>065-074>080-084>089-231500-
SOUTHWEST KANSAS

CITY           SKY/WX    TMP DP  RH WIND       PRES   REMARKS
DODGE CITY     SUNNY     63  50  62 SE9       30.21S
ELKHART          N/A     65  65 100 SE9         N/A
GARDEN CITY    SUNNY     61  51  70 S8        30.22S
GREAT BEND     SUNNY     63  53  70 SE7       30.20S
LIBERAL        SUNNY     65  55  70 SE10      30.21F
$$

KSZ066>073-081>083-090>101-231500-
SOUTHEAST KANSAS

CITY           SKY/WX    TMP DP  RH WIND       PRES   REMARKS
CHANUTE        SUNNY     68  54  60 MISG      30.16S
COFFEYVILLE    SUNNY     67  58  72 NE8       30.13F
HUTCHINSON     SUNNY     66  53  63 E7        30.18S
MEDICINE LODGE   N/A     67  53  61 E9        30.17S
NEWTON         SUNNY     65  53  65 SE9       30.19S
PARSONS        SUNNY     67  56  67 VRB6      30.15F
WICHITA INTL   SUNNY     69  53  56 E12       30.17S
WICHITA JABRA  SUNNY     64  57  78 NE8       30.17S
WICHITA MCCONL SUNNY     66  51  57 E10       30.17S
WINFIELD       SUNNY     67  54  63 E9        30.16S
$$

KSZ007>012-019>026-033>040-048>060-102>105-231500-
NORTHEAST KANSAS

CITY           SKY/WX    TMP DP  RH WIND       PRES   REMARKS
CONCORDIA      SUNNY     64  57  78 SE5       30.18S
EMPORIA        SUNNY     64  56  75 E6        30.18S
LAWRENCE       SUNNY     63  59  87 CALM      30.18R
MANHATTAN      SUNNY     61  57  87 CALM      30.18S
OLATHE IND     SUNNY     66  57  72 E3        30.18S
OLATHE EXE     SUNNY     64  57  78 SE5       30.17S
SALINA         SUNNY     66  53  63 SE5       30.18F
TOPEKA BILLARD SUNNY     64  59  83 CALM      30.17S
TOPEKA FORBES  SUNNY     66  59  78 CALM      30.17S
$$




USA.gov is the U.S. government's official web portal to all federal, state and local government web resources and services.